| time (UTC) | temp F | wind direction | speed MPH | gust MPH | rain 1hr in | rain 24hr in | rain mn in | humidity % | barometer mb |
| 20260904040020 | 77 | 0.0 | 0.0 | 0.00 | 0.00 | 0.00 | 94 | 1016.5 | |
| 20260904040002 | 77 | 144 | 0.0 | 0.0 | 0.00 | 0.00 | 0.00 | 94 | 1013.9 |
| 20260904034501 | 78 | 144 | 0.0 | 0.0 | 0.00 | 0.00 | 0.00 | 94 | 1013.7 |
| 20260904033015 | 78 | 0.0 | 0.0 | 0.00 | 0.00 | 0.00 | 93 | 1016.3 | |
| 20260904033002 | 78 | 144 | 0.0 | 0.0 | 0.00 | 0.00 | 0.00 | 93 | 1013.6 |
| 20260904031600 | 78 | 144 | 0.0 | 0.0 | 0.00 | 0.00 | 0.00 | 92 | 1013.7 |
| 20260904030059 | 78 | 144 | 0.0 | 0.0 | 0.00 | 0.00 | 0.00 | 92 | 1013.8 |
| 20260904030015 | 78 | 0.0 | 0.0 | 0.00 | 0.00 | 0.00 | 92 | 1016.4 | |
| 20260904024559 | 79 | 144 | 0.0 | 0.0 | 0.00 | 0.00 | 0.00 | 92 | 1013.8 |
| 20260904023058 | 79 | 144 | 0.0 | 0.0 | 0.00 | 0.00 | 0.00 | 91 | 1013.8 |
| 20260904023016 | 79 | 0.0 | 0.0 | 0.00 | 0.00 | 0.00 | 91 | 1016.6 | |
| 20260904021559 | 80 | 144 | 0.0 | 0.0 | 0.00 | 0.00 | 0.00 | 91 | 1013.6 |
| 20260904020057 | 80 | 144 | 0.0 | 0.0 | 0.00 | 0.00 | 0.00 | 90 | 1013.5 |
| 20260904020016 | 80 | 0.0 | 0.0 | 0.00 | 0.00 | 0.00 | 90 | 1016.2 | |
| 20260904014601 | 81 | 144 | 0.0 | 0.0 | 0.00 | 0.00 | 0.00 | 89 | 1013.3 |
| 20260904013108 | 82 | 144 | 0.0 | 0.0 | 0.00 | 0.00 | 0.00 | 88 | 1013.2 |
| 20260904013016 | 82 | 0.0 | 0.0 | 0.00 | 0.00 | 0.00 | 88 | 1016.0 | |
| 20260904011558 | 83 | 144 | 0.0 | 0.0 | 0.00 | 0.00 | 0.00 | 88 | 1013.2 |
| 20260904010055 | 83 | 144 | 0.0 | 0.0 | 0.00 | 0.00 | 0.00 | 86 | 1013.0 |
| 20260904010015 | 83 | 0.0 | 1.0 | 0.00 | 0.00 | 0.00 | 86 | 1015.6 | |
| 20260904004554 | 84 | 144 | 0.0 | 0.0 | 0.00 | 0.00 | 0.00 | 85 | 1012.9 |
| 20260904003054 | 85 | 144 | 0.0 | 0.0 | 0.00 | 0.00 | 0.00 | 84 | 1012.8 |
| 20260904003020 | 85 | 146 | 0.0 | 1.0 | 0.00 | 0.00 | 0.00 | 83 | 1015.5 |
| 20260904001604 | 87 | 144 | 0.0 | 1.0 | 0.00 | 0.00 | 0.00 | 80 | 1012.9 |
| 20260904000052 | 90 | 144 | 0.0 | 0.0 | 0.00 | 0.00 | 0.00 | 76 | 1012.9 |
| 20260904000015 | 90 | 0.0 | 4.0 | 0.00 | 0.00 | 0.00 | 76 | 1015.6 | |
| 20260903234555 | 92 | 144 | 0.0 | 0.0 | 0.00 | 0.00 | 0.00 | 73 | 1012.6 |
| 20260903233053 | 93 | 144 | 0.0 | 3.0 | 0.00 | 0.00 | 0.00 | 69 | 1012.6 |
| 20260903233035 | 93 | 145 | 0.0 | 7.0 | 0.00 | 0.00 | 0.00 | 69 | 1015.4 |
| 20260903231551 | 93 | 144 | 0.0 | 2.0 | 0.00 | 0.00 | 0.00 | 67 | 1012.5 |
| 20260903230050 | 94 | 143 | 1.0 | 3.0 | 0.00 | 0.00 | 0.00 | 64 | 1012.4 |
| 20260903230015 | 94 | 143 | 1.0 | 7.0 | 0.00 | 0.00 | 0.00 | 65 | 1015.3 |
| 20260903224550 | 94 | 143 | 1.0 | 4.0 | 0.00 | 0.00 | 0.00 | 64 | 1012.4 |
| 20260903223052 | 95 | 117 | 3.0 | 6.0 | 0.00 | 0.00 | 0.00 | 61 | 1012.5 |
| 20260903223015 | 95 | 133 | 2.0 | 7.0 | 0.00 | 0.00 | 0.00 | 62 | 1015.3 |
| 20260903221548 | 95 | 146 | 3.0 | 6.0 | 0.00 | 0.00 | 0.00 | 59 | 1012.6 |
| 20260903220101 | 95 | 105 | 2.0 | 5.0 | 0.00 | 0.00 | 0.00 | 59 | 1012.4 |
| 20260903220015 | 95 | 129 | 2.0 | 8.0 | 0.00 | 0.00 | 0.00 | 59 | 1015.2 |
| 20260903214547 | 95 | 122 | 4.0 | 6.0 | 0.00 | 0.00 | 0.00 | 57 | 1012.5 |
| 20260903213047 | 95 | 138 | 4.0 | 7.0 | 0.00 | 0.00 | 0.00 | 57 | 1012.6 |
| 20260903213015 | 95 | 130 | 3.0 | 10.0 | 0.00 | 0.00 | 0.00 | 58 | 1015.5 |
| 20260903211543 | 95 | 147 | 3.0 | 7.0 | 0.00 | 0.00 | 0.00 | 57 | 1012.8 |
| 20260903210049 | 95 | 122 | 3.0 | 8.0 | 0.00 | 0.00 | 0.00 | 59 | 1013.0 |
| 20260903210019 | 95 | 126 | 4.0 | 10.0 | 0.00 | 0.00 | 0.00 | 58 | 1015.8 |
| 20260903204539 | 95 | 121 | 3.0 | 8.0 | 0.00 | 0.00 | 0.00 | 59 | 1013.0 |
| 20260903203038 | 96 | 154 | 3.0 | 6.0 | 0.00 | 0.00 | 0.00 | 61 | 1013.1 |
| 20260903203015 | 96 | 157 | 3.0 | 9.0 | 0.00 | 0.00 | 0.00 | 60 | 1016.1 |
| 20260903201536 | 95 | 186 | 2.0 | 8.0 | 0.00 | 0.00 | 0.00 | 60 | 1013.3 |
| 20260903200035 | 96 | 158 | 3.0 | 11.0 | 0.00 | 0.00 | 0.00 | 59 | 1016.3 |
| 20260903200033 | 96 | 147 | 2.0 | 6.0 | 0.00 | 0.00 | 0.00 | 59 | 1013.5 |
| 20260903194544 | 95 | 157 | 3.0 | 7.0 | 0.00 | 0.00 | 0.00 | 57 | 1013.7 |
| 20260903193030 | 96 | 170 | 6.0 | 10.0 | 0.00 | 0.00 | 0.00 | 59 | 1013.7 |
| 20260903193015 | 96 | 161 | 3.0 | 11.0 | 0.00 | 0.00 | 0.00 | 59 | 1016.6 |
| 20260903191527 | 95 | 179 | 1.0 | 7.0 | 0.00 | 0.00 | 0.00 | 57 | 1013.9 |
| 20260903190035 | 95 | 147 | 4.0 | 10.0 | 0.00 | 0.00 | 0.00 | 56 | 1016.8 |
| 20260903190025 | 95 | 129 | 3.0 | 9.0 | 0.00 | 0.00 | 0.00 | 56 | 1014.1 |
| 20260903184524 | 95 | 160 | 5.0 | 9.0 | 0.00 | 0.00 | 0.00 | 58 | 1014.2 |
| 20260903183023 | 95 | 203 | 3.0 | 6.0 | 0.00 | 0.00 | 0.00 | 60 | 1014.2 |
| 20260903183017 | 95 | 173 | 3.0 | 14.0 | 0.00 | 0.00 | 0.00 | 60 | 1016.9 |
| 20260903181520 | 95 | 184 | 1.0 | 6.0 | 0.00 | 0.00 | 0.00 | 60 | 1014.4 |
| 20260903180021 | 94 | 138 | 2.0 | 7.0 | 0.00 | 0.00 | 0.00 | 62 | 1014.6 |
| 20260903180017 | 94 | 157 | 4.0 | 14.0 | 0.00 | 0.00 | 0.00 | 62 | 1017.4 |
| 20260903174516 | 94 | 125 | 4.0 | 6.0 | 0.00 | 0.00 | 0.00 | 63 | 1014.7 |
| 20260903173023 | 94 | 140 | 4.0 | 9.0 | 0.00 | 0.00 | 0.00 | 62 | 1014.8 |
| 20260903173021 | 94 | 156 | 3.0 | 10.0 | 0.00 | 0.00 | 0.00 | 62 | 1017.8 |
| 20260903171512 | 94 | 155 | 3.0 | 7.0 | 0.00 | 0.00 | 0.00 | 63 | 1015.0 |
| 20260903170037 | 93 | 168 | 2.0 | 8.0 | 0.00 | 0.00 | 0.00 | 64 | 1018.0 |
| 20260903170009 | 93 | 151 | 2.0 | 5.0 | 0.00 | 0.00 | 0.00 | 64 | 1015.1 |
| 20260903164506 | 93 | 122 | 2.0 | 6.0 | 0.00 | 0.00 | 0.00 | 66 | 1015.2 |
| 20260903163016 | 92 | 151 | 2.0 | 8.0 | 0.00 | 0.00 | 0.00 | 69 | 1018.2 |
| 20260903163005 | 92 | 142 | 3.0 | 7.0 | 0.00 | 0.00 | 0.00 | 69 | 1015.4 |
| 20260903161558 | 92 | 179 | 2.0 | 5.0 | 0.00 | 0.00 | 0.00 | 70 | 1015.4 |
| 20260903160058 | 91 | 163 | 2.0 | 5.0 | 0.00 | 0.00 | 0.00 | 71 | 1015.5 |
| 20260903160017 | 91 | 172 | 2.0 | 6.0 | 0.00 | 0.00 | 0.00 | 71 | 1018.3 |
| 20260903154552 | 90 | 165 | 2.0 | 5.0 | 0.00 | 0.00 | 0.00 | 73 | 1015.5 |
| 20260903153049 | 90 | 231 | 0.0 | 6.0 | 0.00 | 0.00 | 0.00 | 73 | 1015.5 |
| 20260903153017 | 90 | 200 | 1.0 | 6.0 | 0.00 | 0.00 | 0.00 | 73 | 1018.3 |
| 20260903151547 | 89 | 186 | 1.0 | 4.0 | 0.00 | 0.00 | 0.00 | 75 | 1015.7 |
| 20260903150052 | 87 | 184 | 1.0 | 5.0 | 0.00 | 0.00 | 0.00 | 78 | 1015.7 |
| 20260903150016 | 87 | 193 | 1.0 | 5.0 | 0.00 | 0.00 | 0.00 | 77 | 1018.5 |
| 20260903144542 | 86 | 195 | 2.0 | 4.0 | 0.00 | 0.00 | 0.00 | 79 | 1015.8 |
| 20260903143042 | 85 | 191 | 0.0 | 3.0 | 0.00 | 0.00 | 0.00 | 79 | 1015.7 |
| 20260903143036 | 85 | 180 | 1.0 | 4.0 | 0.00 | 0.00 | 0.00 | 79 | 1018.4 |
| 20260903141535 | 85 | 176 | 0.0 | 4.0 | 0.00 | 0.00 | 0.00 | 82 | 1015.7 |
| 20260903140027 | 84 | 150 | 0.0 | 3.0 | 0.00 | 0.00 | 0.00 | 85 | 1015.8 |
| 20260903140021 | 84 | 150 | 0.0 | 4.0 | 0.00 | 0.00 | 0.00 | 85 | 1018.5 |
| 20260903134537 | 82 | 150 | 0.0 | 3.0 | 0.00 | 0.00 | 0.00 | 86 | 1015.8 |
| 20260903133036 | 81 | 145 | 0.0 | 4.0 | 0.00 | 0.00 | 0.00 | 88 | 1018.4 |
| 20260903133020 | 81 | 146 | 2.0 | 4.0 | 0.00 | 0.00 | 0.00 | 88 | 1015.8 |
| 20260903131516 | 80 | 143 | 0.0 | 2.0 | 0.00 | 0.00 | 0.00 | 93 | 1016.0 |
| 20260903130017 | 78 | 0.0 | 0.0 | 0.00 | 0.00 | 0.00 | 96 | 1018.7 | |
| 20260903130012 | 78 | 143 | 0.0 | 0.0 | 0.00 | 0.00 | 0.00 | 96 | 1016.1 |
| 20260903124506 | 76 | 143 | 0.0 | 0.0 | 0.00 | 0.00 | 0.00 | 99 | 1016.0 |
| 20260903123016 | 75 | 0.0 | 0.0 | 0.00 | 0.00 | 0.00 | 100 | 1018.6 | |
| 20260903123005 | 75 | 143 | 0.0 | 0.0 | 0.00 | 0.00 | 0.00 | 100 | 1016.0 |
| 20260903121502 | 74 | 136 | 0.0 | 0.0 | 0.00 | 0.00 | 0.00 | 99 | 1015.8 |
| 20260903120101 | 73 | 136 | 0.0 | 0.0 | 0.00 | 0.00 | 0.00 | 98 | 1015.7 |
| 20260903120016 | 73 | 0.0 | 0.0 | 0.00 | 0.00 | 0.00 | 98 | 1018.4 | |
| 20260903114558 | 73 | 136 | 0.0 | 0.0 | 0.00 | 0.00 | 0.00 | 98 | 1015.7 |
| 20260903113056 | 72 | 136 | 0.0 | 0.0 | 0.00 | 0.00 | 0.00 | 98 | 1015.5 |
| 20260903113016 | 72 | 0.0 | 0.0 | 0.00 | 0.00 | 0.00 | 98 | 1018.0 | |
| 20260903111553 | 73 | 136 | 0.0 | 0.0 | 0.00 | 0.00 | 0.00 | 98 | 1015.5 |
| 20260903110057 | 73 | 136 | 0.0 | 0.0 | 0.00 | 0.00 | 0.00 | 98 | 1015.3 |
| 20260903110016 | 73 | 0.0 | 0.0 | 0.00 | 0.00 | 0.00 | 98 | 1017.9 | |
| 20260903104558 | 73 | 136 | 0.0 | 0.0 | 0.00 | 0.00 | 0.00 | 98 | 1015.1 |
| 20260903103049 | 73 | 136 | 0.0 | 0.0 | 0.00 | 0.00 | 0.00 | 98 | 1015.0 |
| 20260903103020 | 73 | 0.0 | 0.0 | 0.00 | 0.00 | 0.00 | 98 | 1017.7 | |
| 20260903101536 | 73 | 136 | 0.0 | 0.0 | 0.00 | 0.00 | 0.00 | 98 | 1015.0 |
| 20260903100035 | 73 | 136 | 0.0 | 0.0 | 0.00 | 0.00 | 0.00 | 98 | 1015.0 |
| 20260903100016 | 73 | 0.0 | 0.0 | 0.00 | 0.00 | 0.00 | 98 | 1017.7 | |
| 20260903094539 | 73 | 136 | 0.0 | 0.0 | 0.00 | 0.00 | 0.00 | 97 | 1014.9 |
| 20260903093048 | 73 | 136 | 0.0 | 0.0 | 0.00 | 0.00 | 0.00 | 98 | 1014.9 |
| 20260903093016 | 73 | 0.0 | 0.0 | 0.00 | 0.00 | 0.00 | 98 | 1017.6 | |
| 20260903091531 | 73 | 136 | 0.0 | 0.0 | 0.00 | 0.00 | 0.00 | 97 | 1014.9 |
| 20260903090035 | 73 | 136 | 0.0 | 0.0 | 0.00 | 0.00 | 0.00 | 97 | 1014.9 |
| 20260903090016 | 73 | 0.0 | 0.0 | 0.00 | 0.00 | 0.00 | 97 | 1017.5 | |
| 20260903084529 | 73 | 136 | 0.0 | 0.0 | 0.00 | 0.00 | 0.00 | 97 | 1014.9 |
| 20260903083029 | 74 | 136 | 0.0 | 0.0 | 0.00 | 0.00 | 0.00 | 97 | 1014.8 |
| 20260903083016 | 74 | 0.0 | 0.0 | 0.00 | 0.00 | 0.00 | 97 | 1017.4 | |
| 20260903081539 | 73 | 136 | 0.0 | 0.0 | 0.00 | 0.00 | 0.00 | 97 | 1014.7 |
| 20260903080027 | 74 | 136 | 0.0 | 0.0 | 0.00 | 0.00 | 0.00 | 97 | 1014.7 |
| 20260903080016 | 74 | 0.0 | 0.0 | 0.00 | 0.00 | 0.00 | 97 | 1017.2 | |
| 20260903074527 | 74 | 136 | 0.0 | 0.0 | 0.00 | 0.00 | 0.00 | 97 | 1014.6 |
| 20260903073030 | 74 | 136 | 0.0 | 0.0 | 0.00 | 0.00 | 0.00 | 96 | 1014.6 |
| 20260903073016 | 74 | 0.0 | 0.0 | 0.00 | 0.00 | 0.00 | 96 | 1017.2 | |
| 20260903071524 | 74 | 136 | 0.0 | 0.0 | 0.00 | 0.00 | 0.00 | 97 | 1014.7 |
| 20260903070053 | 74 | 136 | 0.0 | 0.0 | 0.00 | 0.00 | 0.00 | 96 | 1014.6 |
| 20260903070040 | 74 | 0.0 | 1.0 | 0.00 | 0.00 | 0.00 | 96 | 1017.2 | |
| 20260903064521 | 74 | 136 | 0.0 | 0.0 | 0.00 | 0.00 | 0.00 | 96 | 1014.6 |
| 20260903063020 | 74 | 136 | 0.0 | 0.0 | 0.00 | 0.00 | 0.00 | 96 | 1014.7 |
| 20260903063016 | 74 | 138 | 0.0 | 1.0 | 0.00 | 0.00 | 0.00 | 96 | 1017.2 |
| 20260903061520 | 75 | 136 | 0.0 | 1.0 | 0.00 | 0.00 | 0.00 | 96 | 1014.7 |
| 20260903060018 | 75 | 136 | 0.0 | 0.0 | 0.00 | 0.00 | 0.00 | 96 | 1014.7 |
| 20260903060016 | 75 | 0.0 | 0.0 | 0.00 | 0.00 | 0.00 | 96 | 1017.4 | |
| 20260903054515 | 75 | 136 | 0.0 | 0.0 | 0.00 | 0.00 | 0.00 | 96 | 1014.9 |
| 20260903053016 | 75 | 0.0 | 0.0 | 0.00 | 0.00 | 0.00 | 95 | 1017.5 | |
| 20260903053013 | 75 | 136 | 0.0 | 0.0 | 0.00 | 0.00 | 0.00 | 95 | 1015.0 |
| 20260903051513 | 75 | 136 | 0.0 | 0.0 | 0.00 | 0.00 | 0.00 | 95 | 1014.9 |
| 20260903050015 | 75 | 0.0 | 0.0 | 0.00 | 0.00 | 0.00 | 95 | 1017.5 | |
| 20260903050010 | 75 | 136 | 0.0 | 0.0 | 0.00 | 0.00 | 0.00 | 95 | 1014.9 |
| 20260903044509 | 75 | 136 | 0.0 | 0.0 | 0.00 | 0.00 | 0.00 | 95 | 1014.7 |
| 20260903043015 | 76 | 0.0 | 0.0 | 0.00 | 0.00 | 0.00 | 94 | 1017.5 | |
| 20260903043010 | 76 | 136 | 0.0 | 0.0 | 0.00 | 0.00 | 0.00 | 94 | 1014.8 |
| 20260903041510 | 76 | 136 | 0.0 | 0.0 | 0.00 | 0.00 | 0.00 | 94 | 1014.9 |